Location: Unspecified
(47.6579°N, 23.5637°E)
Time: 03:26:05
(UTC+02:00)

Envisat - Pass Details

Date: 03 December 2021
Orbit: 764 x 766 km, 98.2° (Epoch: 17 January)

Event Time Altitude Azimuth Distance (km) Brightness Sun altitude
Rises 06:27:28 0° 6° (N) 3,245 6.1 -14.2°
Reaches altitude 10° 06:29:57 10° 358° (N) 2,314 5.3 -13.8°
Maximum altitude 06:34:31 35° 294° (WNW) 1,235 3.5 -13.1°
Drops below altitude 10° 06:39:03 10° 231° (SW) 2,299 5.2 -12.4°
Sets 06:41:31 0° 222° (SW) 3,220 6.0 -12.0°
